Location: Elbart
(49.6135°N, 11.9134°E)
Time: 23:44:44
(UTC+00:00)

Terra - Pass Details

Date: 09 April 2020
Orbit: 701 x 703 km, 98.2° (Epoch: 24 May)

Event Time Altitude Azimuth Distance (km) Brightness Sun altitude
Exits shadow 20:29:29 45° 84° (E) 959 2.2 -22.2°
Maximum altitude 20:29:53 46° 69° (ENE) 943 2.2 -22.3°
Drops below altitude 10° 20:34:27 10° 356° (N) 2,184 5.0 -22.8°
Sets 20:36:47 0° 351° (N) 3,107 6.0 -23.0°
